| time (UTC) | temp F | wind direction | speed MPH | gust MPH | rain 1hr in | rain 24hr in | rain mn in | humidity % | barometer mb |
| 20260831090046 | 77 | 167 | 0.0 | 0.0 | 0.00 | 0.00 | 0.00 | 95 | 1014.0 |
| 20260831084538 | 77 | 167 | 0.0 | 0.0 | 0.00 | 0.00 | 0.00 | 95 | 1014.1 |
| 20260831083035 | 77 | 167 | 0.0 | 0.0 | 0.00 | 0.00 | 0.00 | 95 | 1014.0 |
| 20260831081535 | 77 | 150 | 0.0 | 0.0 | 0.00 | 0.00 | 0.00 | 95 | 1014.3 |
| 20260831080035 | 77 | 150 | 0.0 | 0.0 | 0.00 | 0.00 | 0.00 | 95 | 1014.1 |
| 20260831074534 | 77 | 147 | 0.0 | 0.0 | 0.00 | 0.00 | 0.00 | 95 | 1014.1 |
| 20260831073032 | 77 | 138 | 0.0 | 0.0 | 0.00 | 0.00 | 0.00 | 95 | 1014.3 |
| 20260831071531 | 77 | 151 | 0.0 | 0.0 | 0.00 | 0.00 | 0.00 | 95 | 1014.3 |
| 20260831070035 | 77 | 150 | 0.0 | 0.0 | 0.00 | 0.00 | 0.00 | 95 | 1014.3 |
| 20260831064529 | 77 | 132 | 0.0 | 0.0 | 0.00 | 0.00 | 0.00 | 95 | 1014.4 |
| 20260831063028 | 78 | 121 | 0.0 | 0.0 | 0.00 | 0.00 | 0.00 | 95 | 1014.5 |
| 20260831061527 | 77 | 121 | 0.0 | 0.0 | 0.00 | 0.00 | 0.00 | 95 | 1014.7 |
| 20260831060027 | 77 | 121 | 0.0 | 0.0 | 0.00 | 0.00 | 0.00 | 95 | 1014.9 |
| 20260831054526 | 77 | 121 | 0.0 | 0.0 | 0.00 | 0.00 | 0.00 | 95 | 1015.1 |
| 20260831053021 | 77 | 190 | 0.0 | 0.0 | 0.00 | 0.00 | 0.00 | 95 | 1015.4 |
| 20260831051525 | 77 | 190 | 0.0 | 0.0 | 0.00 | 0.00 | 0.00 | 95 | 1015.5 |
| 20260831050017 | 77 | 157 | 0.0 | 0.0 | 0.00 | 0.00 | 0.00 | 95 | 1015.7 |
| 20260831044516 | 77 | 135 | 0.0 | 0.0 | 0.00 | 0.00 | 0.00 | 95 | 1015.8 |
| 20260831043015 | 77 | 135 | 0.0 | 0.0 | 0.00 | 0.00 | 0.00 | 95 | 1015.8 |
| 20260831041521 | 77 | 133 | 0.0 | 0.0 | 0.00 | 0.00 | 0.00 | 95 | 1016.0 |
| 20260831040012 | 77 | 153 | 0.0 | 0.0 | 0.00 | 0.00 | 0.00 | 94 | 1015.9 |
| 20260831034510 | 77 | 156 | 0.0 | 0.0 | 0.00 | 0.00 | 0.00 | 94 | 1016.1 |
| 20260831033010 | 77 | 153 | 0.0 | 0.0 | 0.00 | 0.00 | 1.04 | 94 | 1016.2 |
| 20260831031509 | 77 | 121 | 0.0 | 0.0 | 0.00 | 0.00 | 1.04 | 94 | 1016.0 |
| 20260831030009 | 77 | 197 | 0.0 | 0.0 | 0.00 | 0.00 | 1.04 | 93 | 1016.0 |
| 20260831024508 | 78 | 197 | 0.0 | 0.0 | 0.00 | 0.00 | 1.04 | 92 | 1016.0 |
| 20260831023008 | 77 | 197 | 0.0 | 0.0 | 0.00 | 0.00 | 1.04 | 94 | 1016.1 |
| 20260831021508 | 77 | 197 | 0.0 | 0.0 | 0.00 | 0.00 | 1.04 | 93 | 1016.0 |
| 20260831020008 | 77 | 162 | 0.0 | 0.0 | 0.00 | 0.00 | 1.04 | 93 | 1016.0 |
| 20260831014507 | 77 | 171 | 0.0 | 0.0 | 0.00 | 0.00 | 1.04 | 93 | 1016.0 |
| 20260831013007 | 77 | 153 | 0.0 | 0.0 | 0.00 | 0.00 | 1.04 | 92 | 1016.0 |
| 20260831011512 | 78 | 111 | 0.0 | 0.0 | 0.00 | 0.00 | 1.04 | 91 | 1016.1 |
| 20260831010007 | 78 | 120 | 0.0 | 0.0 | 0.00 | 0.00 | 1.04 | 91 | 1016.1 |
| 20260831004505 | 77 | 166 | 0.0 | 0.0 | 0.00 | 0.00 | 1.04 | 93 | 1016.0 |
| 20260831003006 | 77 | 156 | 1.0 | 0.0 | 0.00 | 0.00 | 1.04 | 92 | 1015.7 |
| 20260831001504 | 77 | 163 | 0.0 | 0.0 | 0.00 | 0.00 | 1.04 | 92 | 1015.7 |
| 20260831000004 | 77 | 179 | 1.0 | 0.0 | 0.00 | 0.00 | 1.04 | 92 | 1015.7 |
| 20260830234504 | 77 | 195 | 2.0 | 0.0 | 0.00 | 0.00 | 1.04 | 93 | 1015.6 |
| 20260830233003 | 77 | 192 | 1.0 | 0.0 | 0.00 | 0.00 | 1.04 | 93 | 1015.4 |
| 20260830231503 | 76 | 192 | 2.0 | 0.0 | 0.00 | 0.00 | 1.04 | 93 | 1015.2 |
| 20260830230003 | 77 | 190 | 1.0 | 0.0 | 0.00 | 0.00 | 1.04 | 94 | 1015.0 |
| 20260830224502 | 77 | 186 | 1.0 | 0.0 | 0.00 | 0.00 | 1.04 | 94 | 1014.9 |
| 20260830223000 | 77 | 244 | 0.0 | 0.0 | 0.00 | 0.00 | 1.02 | 94 | 1015.3 |
| 20260830221601 | 76 | 237 | 1.0 | 0.0 | 0.00 | 0.00 | 1.00 | 94 | 1015.7 |
| 20260830214558 | 77 | 80 | 4.0 | 0.0 | 0.00 | 0.00 | 0.94 | 94 | 1015.8 |
| 20260830213058 | 77 | 76 | 7.0 | 0.0 | 0.00 | 0.00 | 0.82 | 92 | 1015.5 |
| 20260830211558 | 77 | 96 | 9.0 | 0.0 | 0.00 | 0.00 | 0.46 | 92 | 1015.4 |
| 20260830210058 | 76 | 35 | 13.0 | 0.0 | 0.00 | 0.00 | 0.19 | 91 | 1014.9 |
| 20260830204553 | 83 | 63 | 5.0 | 0.0 | 0.00 | 0.00 | 0.01 | 82 | 1015.1 |
| 20260830203115 | 89 | 67 | 3.0 | 0.0 | 0.00 | 0.00 | 0.00 | 71 | 1014.7 |
| 20260830201558 | 93 | 284 | 2.0 | 0.0 | 0.00 | 0.00 | 0.00 | 64 | 1014.8 |
| 20260830200051 | 93 | 275 | 5.0 | 0.0 | 0.00 | 0.00 | 0.00 | 63 | 1014.6 |
| 20260830194551 | 95 | 277 | 6.0 | 0.0 | 0.00 | 0.00 | 0.00 | 60 | 1014.9 |
| 20260830193050 | 98 | 297 | 4.0 | 0.0 | 0.00 | 0.00 | 0.00 | 57 | 1015.2 |
| 20260830191557 | 96 | 207 | 4.0 | 0.0 | 0.00 | 0.00 | 0.00 | 61 | 1015.1 |
| 20260830190049 | 95 | 284 | 5.0 | 0.0 | 0.00 | 0.00 | 0.00 | 61 | 1014.9 |
| 20260830184549 | 94 | 258 | 6.0 | 0.0 | 0.00 | 0.00 | 0.00 | 61 | 1015.1 |
| 20260830183101 | 94 | 222 | 6.0 | 0.0 | 0.00 | 0.00 | 0.00 | 62 | 1015.3 |
| 20260830181556 | 95 | 284 | 5.0 | 0.0 | 0.00 | 0.00 | 0.00 | 61 | 1015.6 |
| 20260830180047 | 96 | 294 | 5.0 | 0.0 | 0.00 | 0.00 | 0.00 | 57 | 1015.7 |
| 20260830174551 | 96 | 277 | 6.0 | 0.0 | 0.00 | 0.00 | 0.00 | 57 | 1015.8 |
| 20260830173103 | 96 | 290 | 6.0 | 0.0 | 0.00 | 0.00 | 0.00 | 58 | 1015.8 |
| 20260830171548 | 97 | 280 | 7.0 | 0.0 | 0.00 | 0.00 | 0.00 | 54 | 1016.1 |
| 20260830170043 | 96 | 256 | 6.0 | 0.0 | 0.00 | 0.00 | 0.00 | 59 | 1016.3 |
| 20260830164604 | 95 | 271 | 6.0 | 0.0 | 0.00 | 0.00 | 0.00 | 59 | 1016.3 |
| 20260830163057 | 95 | 271 | 4.0 | 0.0 | 0.00 | 0.00 | 0.00 | 60 | 1016.6 |
| 20260830161539 | 94 | 283 | 5.0 | 0.0 | 0.00 | 0.00 | 0.00 | 63 | 1016.4 |
| 20260830160033 | 91 | 266 | 6.0 | 0.0 | 0.00 | 0.00 | 0.00 | 70 | 1016.7 |
| 20260830154534 | 90 | 278 | 5.0 | 0.0 | 0.00 | 0.00 | 0.00 | 70 | 1016.9 |
| 20260830153030 | 89 | 259 | 3.0 | 0.0 | 0.00 | 0.00 | 0.00 | 72 | 1017.2 |
| 20260830151539 | 88 | 269 | 4.0 | 0.0 | 0.00 | 0.00 | 0.00 | 75 | 1017.0 |
| 20260830150033 | 87 | 265 | 3.0 | 0.0 | 0.00 | 0.00 | 0.00 | 79 | 1017.0 |
| 20260830144528 | 87 | 229 | 7.0 | 0.0 | 0.00 | 0.00 | 0.00 | 80 | 1017.3 |
| 20260830143027 | 89 | 283 | 5.0 | 0.0 | 0.00 | 0.00 | 0.00 | 72 | 1017.1 |
| 20260830141525 | 90 | 294 | 3.0 | 0.0 | 0.00 | 0.00 | 0.00 | 70 | 1016.9 |
| 20260830140024 | 89 | 310 | 3.0 | 0.0 | 0.00 | 0.00 | 0.00 | 73 | 1016.8 |
| 20260830134521 | 88 | 310 | 3.0 | 0.0 | 0.00 | 0.00 | 0.00 | 74 | 1016.7 |
| 20260830133018 | 87 | 262 | 5.0 | 0.0 | 0.00 | 0.00 | 0.00 | 77 | 1016.7 |
| 20260830131514 | 86 | 284 | 5.0 | 0.0 | 0.00 | 0.00 | 0.00 | 78 | 1016.5 |
| 20260830130011 | 85 | 276 | 3.0 | 0.0 | 0.00 | 0.00 | 0.00 | 82 | 1016.4 |
| 20260830124513 | 84 | 297 | 1.0 | 0.0 | 0.00 | 0.00 | 0.00 | 84 | 1016.6 |
| 20260830123006 | 83 | 344 | 3.0 | 0.0 | 0.00 | 0.00 | 0.00 | 84 | 1016.6 |
| 20260830121504 | 82 | 277 | 2.0 | 0.0 | 0.00 | 0.00 | 0.00 | 86 | 1016.3 |
| 20260830120002 | 81 | 276 | 1.0 | 0.0 | 0.00 | 0.00 | 0.00 | 88 | 1016.1 |
| 20260830114501 | 80 | 257 | 2.0 | 0.0 | 0.00 | 0.00 | 0.00 | 88 | 1016.0 |
| 20260830113002 | 80 | 273 | 2.0 | 0.0 | 0.00 | 0.00 | 0.00 | 88 | 1015.7 |
| 20260830111600 | 81 | 279 | 0.0 | 0.0 | 0.00 | 0.00 | 0.00 | 87 | 1015.6 |
| 20260830110101 | 81 | 277 | 1.0 | 0.0 | 0.00 | 0.00 | 0.00 | 86 | 1015.3 |
| 20260830104602 | 81 | 272 | 1.0 | 0.0 | 0.00 | 0.00 | 0.00 | 87 | 1015.0 |
| 20260830103101 | 81 | 279 | 2.0 | 0.0 | 0.00 | 0.00 | 0.00 | 87 | 1014.7 |
| 20260830101600 | 81 | 272 | 3.0 | 0.0 | 0.00 | 0.00 | 0.00 | 86 | 1014.6 |
| 20260830100101 | 81 | 265 | 3.0 | 0.0 | 0.00 | 0.00 | 0.00 | 86 | 1014.6 |
| 20260830094558 | 81 | 290 | 3.0 | 0.0 | 0.00 | 0.00 | 0.00 | 86 | 1014.5 |
| 20260830093057 | 81 | 266 | 3.0 | 0.0 | 0.00 | 0.00 | 0.00 | 86 | 1014.4 |
| 20260830091556 | 81 | 279 | 3.0 | 0.0 | 0.00 | 0.00 | 0.00 | 87 | 1014.5 |